Weather History for Creston, IA

Change the Weather History Date:

Saturday, January 25, 2014

  Actual Average Record
Temperature  
Mean Temperature 32 °F -  
Max Temperature 42 °F 30 °F 62 °F (2002)
Min Temperature 23 °F 14 °F -8 °F (1961)
Degree Days  
Heating Degree Days 32    
Moisture  
Dew Point 11 °F    
Average Humidity 50    
Maximum Humidity 81    
Minimum Humidity 22    
Precipitation  
Precipitation 0.00 in - - ()
Sea Level Pressure  
Sea Level Pressure 29.84 in    
Wind  
Wind Speed 20 mph (NW)    
Max Wind Speed 31 mph    
Max Gust Speed 43 mph    
Visibility 10 miles    
Events      
Averages and records for this station are not official NWS values.
T = Trace of Precipitation, MM = Missing Value Source: NWS Daily Summary

Daily Weather History Graph

Daily Weather History Graph

Search for Another Location

Airport:

Trip Planner

Search our weather history database for the weather conditions in past years. The results will help you decide how hot, cold, wet, or windy it might be!

Date:

Astronomy

Jan. 25, 2014 Rise Set
Actual Time 7:34 AM CST 5:25 PM CST
Civil Twilight 7:04 AM CST 5:55 PM CST
Nautical Twilight 6:31 AM CST 6:28 PM CST
Astronomical Twilight 5:58 AM CST 7:01 PM CST
Moon 2:06 AM CST (1/25) 12:27 PM CST (1/25)
Length of Visible Light 10h 50m
Length of Day
9h 51m
Waning Crescent, 34% of the Moon is Illuminated
Jan 25
Waning Crescent
Jan 30
New
Feb 6
First Quarter
Feb 14
Full
Feb 22
Last Quarter

Hourly Weather History & Observations

Time (CST) Temp. Windchill Dew Point Humidity Pressure Visibility Wind Dir Wind Speed Gust Speed Precip Events Conditions
12:15 AM 42.8 °F 32.1 °F 33.8 °F 70% 29.68 in 10.0 mi NW 31.1 mph - N/A   Overcast
12:35 AM 42.8 °F 33.1 °F 32.0 °F 66% 29.69 in 10.0 mi NW 25.3 mph 40.3 mph N/A   Overcast
12:55 AM 41.0 °F 31.4 °F 32.0 °F 70% 29.70 in 10.0 mi NW 21.9 mph 38.0 mph N/A   Overcast
1:15 AM 41.0 °F 30.9 °F 32.0 °F 70% 29.70 in 10.0 mi NW 24.2 mph 34.5 mph N/A   Overcast
1:35 AM 39.2 °F 29.0 °F 32.0 °F 75% 29.71 in 10.0 mi NW 21.9 mph 29.9 mph N/A   Overcast
1:55 AM 39.2 °F 29.6 °F 32.0 °F 75% 29.71 in 10.0 mi NW 19.6 mph 26.5 mph N/A   Overcast
2:15 AM 39.2 °F 29.3 °F 30.2 °F 70% 29.73 in 10.0 mi NW 20.7 mph 31.1 mph N/A   Overcast
2:35 AM 37.4 °F 26.4 °F 30.2 °F 75% 29.74 in 10.0 mi NW 23.0 mph - N/A   Overcast
2:55 AM 37.4 °F 26.6 °F 30.2 °F 75% 29.75 in 10.0 mi NW 21.9 mph 28.8 mph N/A   Mostly Cloudy
3:15 AM 37.4 °F 26.6 °F 30.2 °F 75% 29.75 in 10.0 mi NW 21.9 mph 28.8 mph N/A   Overcast
3:35 AM 37.4 °F 26.4 °F 30.2 °F 75% 29.76 in 10.0 mi NW 23.0 mph 31.1 mph N/A   Overcast
3:55 AM 37.4 °F 26.4 °F 30.2 °F 75% 29.76 in 10.0 mi NW 23.0 mph 32.2 mph N/A   Mostly Cloudy
4:15 AM 37.4 °F 26.9 °F 30.2 °F 75% 29.77 in 10.0 mi NW 20.7 mph 33.4 mph N/A   Mostly Cloudy
4:35 AM 37.4 °F 27.5 °F 30.2 °F 75% 29.76 in 10.0 mi NW 18.4 mph - N/A   Overcast
4:55 AM 35.6 °F 25.9 °F 30.2 °F 81% 29.77 in 10.0 mi WNW 16.1 mph 21.9 mph N/A   Overcast
5:15 AM 35.6 °F 25.5 °F 30.2 °F 81% 29.77 in - NW 17.3 mph - N/A   Overcast
5:35 AM 35.6 °F 27.1 °F 30.2 °F 81% 29.78 in 10.0 mi WNW 12.7 mph 20.7 mph N/A   Overcast
5:55 AM 35.6 °F 26.2 °F 30.2 °F 81% 29.79 in 10.0 mi WNW 15.0 mph - N/A   Overcast
6:15 AM 30.2 °F 16.8 °F 21.2 °F 69% 29.82 in 10.0 mi North 23.0 mph 34.5 mph N/A   Overcast
6:35 AM 28.4 °F 15.8 °F 21.2 °F 74% 29.83 in 10.0 mi North 18.4 mph 26.5 mph N/A   Overcast
6:55 AM 28.4 °F 13.8 °F 19.4 °F 69% 29.86 in 10.0 mi North 25.3 mph 31.1 mph N/A   Overcast
7:15 AM 26.6 °F 15.7 °F 17.6 °F 69% 29.88 in 10.0 mi North 12.7 mph 20.7 mph N/A   Overcast
7:35 AM 26.6 °F 11.1 °F 14.0 °F 59% 29.89 in 10.0 mi NNW 26.5 mph 34.5 mph N/A   Overcast
7:55 AM 24.8 °F 9.3 °F 10.4 °F 54% 29.90 in 10.0 mi NNW 24.2 mph 33.4 mph N/A   Overcast
8:15 AM 23.0 °F 8.0 °F 6.8 °F 50% 29.92 in 10.0 mi NNW 20.7 mph 27.6 mph N/A   Overcast
8:35 AM 23.0 °F 10.1 °F 6.8 °F 50% 29.94 in 10.0 mi North 15.0 mph 24.2 mph N/A   Scattered Clouds
8:55 AM 23.0 °F 10.6 °F 5.0 °F 46% 29.95 in 10.0 mi North 13.8 mph 23.0 mph N/A   Partly Cloudy
9:15 AM 23.0 °F 8.0 °F 3.2 °F 43% 29.97 in 10.0 mi NNW 20.7 mph 29.9 mph N/A   Clear
9:35 AM 23.0 °F 8.3 °F 3.2 °F 43% 29.98 in 10.0 mi NNW 19.6 mph 27.6 mph N/A   Clear
9:55 AM 23.0 °F 8.0 °F 3.2 °F 43% 29.98 in 10.0 mi NNW 20.7 mph 27.6 mph N/A   Clear
10:15 AM 23.0 °F 8.0 °F -0.4 °F 36% 29.99 in 10.0 mi NNW 20.7 mph 35.7 mph N/A   Clear
10:35 AM 23.0 °F 6.6 °F 1.4 °F 39% 30.00 in 10.0 mi North 25.3 mph 42.6 mph N/A   Clear
10:55 AM 24.8 °F 9.3 °F 5.0 °F 43% 30.00 in 10.0 mi NNW 24.2 mph 32.2 mph N/A   Clear
11:15 AM 24.8 °F 10.0 °F 5.0 °F 43% 30.00 in 10.0 mi North 21.9 mph 33.4 mph N/A   Clear
11:35 AM 24.8 °F 9.6 °F 5.0 °F 43% 29.99 in 10.0 mi NW 23.0 mph 29.9 mph N/A   Clear
11:55 AM 26.6 °F 12.4 °F 3.2 °F 37% 30.00 in 10.0 mi NNW 21.9 mph 28.8 mph N/A   Clear
12:15 PM 26.6 °F 12.0 °F 3.2 °F 37% 30.00 in 10.0 mi NW 23.0 mph - N/A   Clear
12:35 PM 26.6 °F 12.7 °F 5.0 °F 40% 29.99 in 10.0 mi NNW 20.7 mph - N/A   Clear
12:55 PM 28.4 °F 15.4 °F 5.0 °F 37% 30.00 in 10.0 mi WNW 19.6 mph 28.8 mph N/A   Clear
1:15 PM 28.4 °F 13.5 °F -2.2 °F 27% 29.99 in 10.0 mi NW 26.5 mph - N/A   Clear
1:35 PM 28.4 °F 15.1 °F 3.2 °F 34% 29.98 in 10.0 mi NNW 20.7 mph - N/A   Clear
1:55 PM 28.4 °F 14.7 °F 5.0 °F 37% 29.97 in 10.0 mi NW 21.9 mph - N/A   Clear
2:15 PM 26.6 °F 11.7 °F -2.2 °F 29% 29.98 in 10.0 mi NW 24.2 mph 29.9 mph N/A   Clear
2:35 PM 26.6 °F 14.3 °F -7.6 °F 22% 29.97 in 10.0 mi NW 16.1 mph 28.8 mph N/A   Clear
2:55 PM 26.6 °F 13.8 °F -4.0 °F 26% 29.95 in 10.0 mi NW 17.3 mph - N/A   Clear
3:15 PM 26.6 °F 15.2 °F -2.2 °F 29% 29.95 in 10.0 mi NW 13.8 mph - N/A   Clear
3:35 PM 26.6 °F 14.7 °F -4.0 °F 26% 29.95 in 10.0 mi NW 15.0 mph 21.9 mph N/A   Clear
3:55 PM 26.6 °F 15.7 °F -4.0 °F 26% 29.96 in 10.0 mi NW 12.7 mph 19.6 mph N/A   Clear
4:15 PM 26.6 °F 15.7 °F -2.2 °F 29% 29.95 in 10.0 mi NW 12.7 mph - N/A   Clear
4:35 PM 26.6 °F 16.2 °F -4.0 °F 26% 29.94 in 10.0 mi NW 11.5 mph - N/A   Clear
4:55 PM 26.6 °F 16.8 °F -2.2 °F 29% 29.94 in 10.0 mi WNW 10.4 mph - N/A   Clear
5:15 PM 24.8 °F 17.9 °F -2.2 °F 31% 29.92 in 10.0 mi WNW 5.8 mph - N/A   Partly Cloudy
5:35 PM 23.0 °F 15.8 °F -0.4 °F 36% 29.93 in 10.0 mi WNW 5.8 mph - N/A   Scattered Clouds
5:55 PM 23.0 °F - -0.4 °F 36% 29.90 in 10.0 mi Calm Calm - N/A   Mostly Cloudy
6:15 PM 23.0 °F - 1.4 °F 39% 29.90 in 10.0 mi Calm Calm - N/A   Mostly Cloudy
6:35 PM 23.0 °F 18.4 °F 3.2 °F 43% 29.89 in 10.0 mi ESE 3.5 mph - N/A   Overcast
6:55 PM 23.0 °F 15.8 °F 3.2 °F 43% 29.88 in 10.0 mi South 5.8 mph - N/A   Overcast
7:15 PM 24.8 °F 16.9 °F 3.2 °F 40% 29.87 in 10.0 mi SSE 6.9 mph - N/A   Overcast
7:35 PM 24.8 °F 17.9 °F 5.0 °F 43% 29.85 in 10.0 mi South 5.8 mph - N/A   Overcast
7:55 PM 24.8 °F 17.9 °F 5.0 °F 43% 29.84 in 10.0 mi SSE 5.8 mph - N/A   Overcast
8:15 PM 26.6 °F 19.1 °F 6.8 °F 43% 29.81 in 10.0 mi South 6.9 mph - N/A   Overcast
8:35 PM 26.6 °F 16.2 °F 6.8 °F 43% 29.77 in 10.0 mi SSE 11.5 mph - N/A   Overcast
8:55 PM 26.6 °F 16.2 °F 6.8 °F 43% 29.76 in 10.0 mi South 11.5 mph - N/A   Overcast
9:15 PM 26.6 °F 14.7 °F 6.8 °F 43% 29.73 in 10.0 mi South 15.0 mph - N/A   Overcast
9:35 PM 26.6 °F 14.3 °F 6.8 °F 43% 29.71 in 10.0 mi South 16.1 mph - N/A   Mostly Cloudy
9:55 PM 24.8 °F 11.9 °F 8.6 °F 50% 29.69 in 10.0 mi South 16.1 mph - N/A   Scattered Clouds
10:15 PM 26.6 °F 14.7 °F 8.6 °F 47% 29.67 in 10.0 mi South 15.0 mph 20.7 mph N/A   Mostly Cloudy
10:35 PM 26.6 °F 13.8 °F 8.6 °F 47% 29.64 in 10.0 mi South 17.3 mph - N/A   Scattered Clouds
10:55 PM 26.6 °F 14.3 °F 10.4 °F 51% 29.62 in 10.0 mi South 16.1 mph 24.2 mph N/A   Clear
11:15 PM 26.6 °F 13.1 °F 10.4 °F 51% 29.59 in 10.0 mi South 19.6 mph - N/A   Scattered Clouds
11:35 PM 28.4 °F 14.7 °F 12.2 °F 51% 29.56 in 10.0 mi South 21.9 mph 28.8 mph N/A   Overcast
11:55 PM 30.2 °F 16.5 °F 14.0 °F 51% 29.54 in 10.0 mi SSW 24.2 mph - N/A   Overcast